Hourly Data Report for November 02, 2019

All times are specified in Local Standard Time (LST). Add 1 hour to adjust for Daylight Saving Time where and when it is observed.

PINAWA
MANITOBA
Current Station Operator: ECCC - MSC

50°10'38.020" N
96°03'53.000" W
268.00 m
503B1ER
71448
WEA

Download Data

Hourly Data (November 2019)
Hourly Data Report for November 2, 2019
TIME Temp Definition
°C
Dew Point Definition
°C
Rel Hum Definition
%
Wind Dir Definition
10's deg

Wind Spd Definition
km/h
Visibility Definition
km
Stn Press Definition
kPa
Hmdx Definition


Wind Chill Definition


Weather Definition


00:00 -2.6 LegendMM LegendMM 34 10   98.41   -6 LegendNANA
01:00 -2.5 LegendMM LegendMM 34 8   98.43   -6 LegendNANA
02:00 -2.9 LegendMM LegendMM 34 11   98.44   -7 LegendNANA
03:00 -2.7 LegendMM LegendMM 33 9   98.46   -6 LegendNANA
04:00 -2.9 LegendMM LegendMM 34 7   98.47   -6 LegendNANA
05:00 -2.4 LegendMM LegendMM 30 14   98.45   -7 LegendNANA
06:00 -2.6 LegendMM LegendMM 28 13   98.45   -7 LegendNANA
07:00 -2.6 LegendMM LegendMM 28 10   98.44   -6 LegendNANA
08:00 -2.5 LegendMM LegendMM 28 10   98.46   -6 LegendNANA
09:00 -2.2 LegendMM LegendMM 29 12   98.45   -6 LegendNANA
10:00 -1.6 LegendMM LegendMM 28 11   98.44   -5 LegendNANA
11:00 -1.1 LegendMM LegendMM 27 10   98.44   -5 LegendNANA
12:00 -0.9 LegendMM LegendMM 27 8   98.42   -4 LegendNANA
13:00 -0.4 LegendMM LegendMM 28 11   98.39   -4 LegendNANA
14:00 0.0 LegendMM LegendMM 30 12   98.35   -4 LegendNANA
15:00 0.5 LegendMM LegendMM 28 8   98.33     LegendNANA
16:00 0.4 LegendMM LegendMM 29 12   98.34     LegendNANA
17:00 0.3 LegendMM LegendMM 26 6   98.34     LegendNANA
18:00 0.2 LegendMM LegendMM 26 5   98.33     LegendNANA
19:00 0.0 LegendMM LegendMM 23 3   98.31   -1 LegendNANA
20:00 -0.1 LegendMM LegendMM 22 4   98.29   -1 LegendNANA
21:00 -0.6 LegendMM LegendMM 18 3   98.22   -2 LegendNANA
22:00 -0.9 LegendMM LegendMM 19 4   98.19   -2 LegendNANA
23:00 -0.7 LegendMM LegendMM 19 4   98.14   -2 LegendNANA

Notes on Data Quality.

Legend

  • E = Estimated
  • M = Missing
  • NA = Not Available
Date modified: